Solar Dynamics Observatory

operational
NORAD ID: 36395 Int'l Des: 2010-005 Owner: GSFC Country: US
HEOCIRCULARGSO

关于 Solar Dynamics Observatory

正在加载描述...

实时位置

正在加载3D地球...

即将过境

高度历史

Altitude vs Time

uPlot chart will show altitude changes over time

两行轨道根数

1 36395U 10005A 26062.06732369 -.00000069 00000-0 00000-0 0 9990
2 36395 34.4278 87.9487 0000370 70.7532 284.4475 1.00275344 58994
Epoch: Mar 3, 2026 • Age: 39 hours

当前状态

高度 35787.9 km
速度 3.07 km/s
星下点 -8.53°S, 104.51°W
发射日期 Feb 11, 2010
运行时间 16 years
类型 other

技术详情

分类 Payload
质量 3100.00 kg
干质量 1650.00 kg
总质量 3100.00 kg
长度 4.50 m
直径 2.20 m
跨度 6.50 m
形状 Box + 2 Pan
制造商 GSFC
平台类型 SDO
阶段状态 In Orbit
所有者/国家 GSFC/US

大型星座

Loading constellations...